Location: Capannuccia
(43.7000°N, 11.3000°E)
Time: 07:47:29
(UTC+00:00)

STARLINK-1312 - Pass Details

Date: 07 October 2020
Orbit: 549 x 550 km, 53.0° (Epoch: 23 October)

Event Time Altitude Azimuth Distance (km) Brightness Sun altitude
Exits shadow 02:06:45 13° 88° (E) 1,616 6.6 -34.6°
Drops below altitude 10° 02:07:28 10° 81° (E) 1,821 7.0 -34.4°
Sets 02:10:06 0° 65° (ENE) 2,719 8.2 -34.0°
